Regional Weather Roundup
Issued by NWS

Home | Current Version | Previous Version | Text Only | Print | Product List | Glossary Off
Versions: 1 2 3 4 5 6 7 8 9 10 11 12 13 14 15 16 17 18 19 20 21 22 23 24 25 26 27 28 29 30 31 32 33 34 35 36 37 38 39 40 41 42 43 44 45 46 47 48 49 50

569
ASUS45 KCYS 061610
RWRWY

WYOMING REGIONAL WEATHER ROUNDUP
NATIONAL WEATHER SERVICE CHEYENNE WY
900 AM MST SAT FEB 06 2016

NOTE:  "FAIR" INDICATES FEW OR NO CLOUDS BELOW 12,000 FEET
WITH NO SIGNIFICANT WEATHER AND/OR OBSTRUCTIONS TO VISIBILITY.

WYZ001-061700-
YELLOWSTONE NATIONAL PARK

CITY           SKY/WX    TMP DP  RH WIND       PRES   REMARKS
LK YELLOWSTONE   N/A     21  16  81 VRB5      30.28F WCI  15
W YELLOWSTONE  NOT AVBL

$$
WYZ002>013-054>058-071-098>099-061700-
NORTHERN WYOMING

CITY           SKY/WX    TMP DP  RH WIND       PRES   REMARKS
JACKSON        MOSUNNY   23  19  86 S12       30.34F WCI  12
CODY           FAIR      39  18  41 W13G28    30.07F WCI  32
GREYBULL       FAIR      21  14  74 SE7       30.16F WCI  12
WORLAND        FAIR      23  16  74 SW9       30.18S WCI  13
SHERIDAN       PTSUNNY   37  21  52 CALM      29.92F
BUFFALO        FAIR      45  20  36 S15       29.97F
GILLETTE       FAIR      35  22  58 SW25G36   29.99F WCI  23
HULETT         CLOUDY    36  21  55 SW15G24   29.99F WCI  26
NEWCASTLE      FAIR      28  19  69 NE5       30.10S WCI  23

$$
WYZ014>020-022>026-101>103-061700-
CENTRAL WYOMING

CITY           SKY/WX    TMP DP  RH WIND       PRES   REMARKS
BIG PINEY      FAIR      11   8  88 W5        30.38R WCI   3
PINEDALE       FAIR      16  10  79 CALM      30.36S
DUBOIS         FAIR      27  16  63 NW25G37   30.21F WCI  11
LANDER         FAIR      21  10  62 N3        30.20S
RIVERTON       FAIR      20   9  62 S7        30.20F WCI  11
CASPER         FAIR      26  17  68 SW30G43   30.18F WCI  10
DOUGLAS        FAIR      34  19  54 W21G28      N/A  WCI  22

$$
WYZ021-027>030-104>119-061700-
SOUTHERN WYOMING

CITY           SKY/WX    TMP DP  RH WIND       PRES   REMARKS
EVANSTON       FAIR      16  12  84 SW12      30.43R WCI   3
FORT BRIDGER   SUNNY     23  14  68 W18       30.44R WCI   9
ROCK SPRINGS   FAIR      20  14  77 E3        30.40R
DIXON          FAIR       6   2  84 CALM      30.48S
RAWLINS        CLOUDY    23  12  62 W16       30.33R WCI  10
SARATOGA       FAIR      21  12  68 S9        30.33F WCI  11
LARAMIE        FAIR      26  13  57 SW20      30.22F WCI  12
CHEYENNE       FAIR      35  17  47 NW23G37   30.12S WCI  23
TORRINGTON     FAIR      35  19  52 W15G24    30.13F WCI  25
PINE BLUFFS    FAIR      32  18  55 SW8       30.18S WCI  25

$$




USA.gov is the U.S. government's official web portal to all federal, state and local government web resources and services.